Location: Greenwich
(51.4790°N, 0.0090°E)
Time: 22:45:52
(UTC+01:00)

N. Korean satellite - Pass Details

Date: 25 September 2021
Orbit: 450 x 495 km, 97.3° (Epoch: 23 October)

Event Time Altitude Azimuth Distance (km) Brightness Sun altitude
Rises 06:03:45 0° 18° (NNE) 2,523 10.6 -8.2°
Reaches altitude 10° 06:05:51 10° 25° (NNE) 1,649 9.7 -7.8°
Maximum altitude 06:09:16 45° 99° (E) 660 7.8 -7.3°
Drops below altitude 10° 06:12:43 10° 174° (S) 1,660 9.3 -6.8°
Sets 06:14:51 0° 180° (S) 2,542 10.1 -6.5°
